Location: Gensac
(43.2177°N, 1.1313°E)
Time: 10:16:57
(UTC+00:00)

IGS 5A - Pass Details

Date: 23 March 2026
Orbit: 551 x 554 km, 97.4° (Epoch: 8 January)

Event Time Altitude Azimuth Distance (km) Brightness Sun altitude
Rises 04:57:26 0° 23° (NNE) 2,734 7.4 -11.0°
Reaches altitude 10° 04:59:49 10° 35° (NE) 1,835 6.7 -10.6°
Maximum altitude 05:03:15 28° 96° (E) 1,058 5.7 -10.0°
Drops below altitude 10° 05:06:40 10° 156° (SSE) 1,822 6.2 -9.3°
Sets 05:09:01 0° 168° (SSE) 2,710 6.9 -8.9°
